Regional Weather Roundup
Issued by NWS

Home | Current Version | Previous Version | Text Only | Print | Product List | Glossary On
Versions: 1 2 3 4 5 6 7 8 9 10 11 12 13 14 15 16 17 18 19 20 21 22 23 24 25 26 27 28 29 30 31 32 33 34 35 36 37 38 39 40 41 42 43 44 45 46 47 48 49 50
000
ASUS43 KDTX 222210
RWRMI
MICHIGAN HOURLY REGIONAL WEATHER ROUNDUP
NATIONAL WEATHER SERVICE DETROIT/PONTIAC MI
600 PM EDT TUE APR 22 2014

NOTE: "FAIR" INDICATES FEW OR NO CLOUDS BELOW 12,000 FEET WITH NO
SIGNIFICANT WEATHER AND/OR OBSTRUCTION TO VISIBILITY.

MIZ047>049-052>055-059>063-066>070-074>076-081>083-222300-
SOUTHEAST LOWER MICHIGAN

CITY           SKY/WX    TMP DP  RH WIND       PRES   REMARKS
ADRIAN         CLOUDY    52  33  48 N16G26    29.84R
ALMA           CLOUDY    45  29  53 NW21G29   29.89R
ANN ARBOR      PTSUNNY   51  32  48 N22G36    29.83R
BAD AXE        LGT RAIN  40  34  80 NW15G23   29.82R
DETROIT CITY   CLOUDY    52  33  48 NW18G25   29.81R
DETROIT        PTSUNNY   52  33  48 W18       29.82R
FLINT          CLOUDY    46  32  58 NW25G32   29.85R
GROSSE ILE     CLOUDY    52  34  50 NW20G26   29.79R
HILLSDALE      MOSUNNY   51  32  48 NW25G31   29.86R
HOWELL         CLOUDY    45  32  61 NW20G26   29.85R

CITY           SKY/WX    TMP DP  RH WIND       PRES   REMARKS
JACKSON        CLOUDY    47  32  56 NW16G26   29.86R
LAMBERTVILLE   CLOUDY    54  32  43 NW16G23   29.83R
LANSING        CLOUDY    46  29  51 NW22G30   29.89R
LAPEER         NOT AVBL
MASON          CLOUDY    45  32  60 NW18G25   29.87R
MONROE         CLOUDY    54  34  47 NW18G26   29.80R
MT. CLEMENS    CLOUDY    47  35  61 NW15G28   29.79R
PONTIAC        CLOUDY    45  32  60 NW23G32   29.82R
PORT HOPE        N/A     42  34  73 NW10G20   29.78R
PORT HURON     CLOUDY    45  36  70 NW16G25   29.79R
TRI CITIES     CLOUDY    46  30  53 NW24G36   29.85R
YPSILANTI      CLOUDY    54  33  45 NW20G29   29.82R
$$
MIZ043>046-050>051-056>058-064>065-071>073-077>080-222300-
SOUTHWEST LOWER MICHIGAN

CITY           SKY/WX    TMP DP  RH WIND       PRES   REMARKS
BATTLE CREEK   PTSUNNY   46  29  51 NW24G32   29.92R
BENTON HARBOR  MOSUNNY   44  30  57 N10G21    29.98R
BIG RAPIDS     CLOUDY    43  28  56 N13G23    29.92R
COLDWATER      CLOUDY    48  32  53 NW18G25   29.90R
HOLLAND        CLOUDY    50  30  46 N13G26    29.96R
GRAND RAPIDS   CLOUDY    46  29  51 NW17G24   29.94R
KALAMAZOO      CLOUDY    48  30  49 NW23G29   29.93R
MARSHALL       CLOUDY    46  31  56 NW15G24   29.90R
MUSKEGON       PTSUNNY   47  27  45 N22G30    29.97R
$$
MIZ016>042-222300-
NORTHERN LOWER MICHIGAN

CITY           SKY/WX    TMP DP  RH WIND       PRES   REMARKS
ALPENA         CLOUDY    42  31  64 NW16G30   29.81R
BEAVER ISLAND  CLOUDY    37  30  75 NW12G21   29.95R
BELLAIRE       CLOUDY    37  31  80 NW10G23   29.95R
CADILLAC       CLOUDY    39  30  70 NW14G24   29.91S
CHARLEVOIX     CLOUDY    37  32  82 NW13G20   29.97R
FRANKFORT      CLOUDY    39  29  66 N12G21    29.99R
GAYLORD        FLURRIES  34  28  79 NW14G26   29.87R
GRAYLING       CLOUDY    35  32  88 NW15G26   29.89R
HARBOR SPRINGS CLOUDY    39  30  69 NW17G26   29.90R
HOUGHTON LAKE  CLOUDY    37  30  75 NW21G32   29.89R
MANISTEE       PTSUNNY   43  28  56 NW16      29.98S
OSCODA         CLOUDY    44  32  63 NW16G25   29.79R
PELLSTON       CLOUDY    39  29  67 NW22G35   29.90R
TRAVERSE CITY  CLOUDY    39  28  64 NW18G26   29.95R
$$
MIZ007>008-015-222300-
EASTERN UPPER MICHIGAN

CITY           SKY/WX    TMP DP  RH WIND       PRES   REMARKS
KINROSS        CLOUDY    36  32  87 NW22G29   29.86R
MACKINAC ISLAN CLOUDY    37  30  77 N16G26    29.87R
NEWBERRY       CLOUDY    33  28  82 NW13G23   29.94R
S. S. MARIE    CLOUDY    37  29  72 NW12G22   29.87R
$$
MIZ004>006-011>014-085-222300-
CENTRAL UPPER MICHIGAN

CITY           SKY/WX    TMP DP  RH WIND       PRES   REMARKS
MANISTIQUE     CLOUDY    37  28  70 NW18G29   29.97R
ESCANABA       CLOUDY    41  27  56 N12G22    30.00R
MENOMINEE      CLOUDY    45  27  49 N16G22    30.00S
SAWYER-GWINN   CLOUDY    36  25  64 N15G23    30.01R
$$
MIZ001>003-009>011-084-222300-
WESTERN UPPER MICHIGAN

CITY           SKY/WX    TMP DP  RH WIND       PRES   REMARKS
IRON MOUNTAIN  CLOUDY    40  26  57 NW14      30.01R
HOUGHTON       MOSUNNY   37  25  61 N9        30.05S
COPPER HARBOR    N/A     36  29  75 NE7       30.05S
IRONWOOD       SUNNY     45  25  45 NW12      30.04S
$$

ABBREVIATIONS USED IN REMARKS
   TC - TEMPERATURE IN CELSIUS
  WCI - WIND CHILL INDEX
   HX - HEAT INDEX
  VSB - VISIBILITY




USA.gov is the U.S. government's official web portal to all federal, state and local government web resources and services.